STARLINK-37218

Last updated on Sun Apr 12 2026 00:02:09 GMT+0000 (Coordinated Universal Time)

1 68403U 26063Z 26101.48128347 .00046204 00000+0 24036-3 0 9998 2 68403 97.2826 242.8802 0001509 107.9951 252.1482 15.80844826 2800
UTC large
Height (km)
Speed (km/s)
/
Latitude / Longitude
Inclination (degrees)
Orbital Period (minutes)
Azimuth
Elevation
Range (km)
Doppler Factor

Next 0 passes for location: London (51.5072 / 0.1276)

Sorry there are no passes over London.
STARLINK-37218